Birmingham, AL

11:10 PM CST on December 13, 2019 (GMT -0600)
Birmingham International

Weather History for KBHM - October, 2019

Change the Weather History Date:

Saturday, October 19, 2019

  Actual Average Record
Temperature  
Mean Temperature 60 °F 63 °F  
Max Temperature 61 °F 74 °F 91 °F (2016)
Min Temperature 58 °F 52 °F 29 °F (1948)
Degree Days  
Heating Degree Days 5 4  
Month to date heating degree days 38 50  
Since 1 July heating degree days 38 59  
Cooling Degree Days 0 2  
Month to date cooling degree days 160 68  
Year to date cooling degree days 2609 2018  
Growing Degree Days 9 (Base 50)    
Moisture  
Dew Point 54 °F    
Average Humidity 74    
Maximum Humidity 93    
Minimum Humidity 55    
Precipitation  
Precipitation 0.09 in 0.11 in 2.53 in (1970)
Month to date precipitation 1.64 2.10  
Year to date precipitation 38.70 43.08  
Snow  
Snow 0.00 in 0.00 in - ()
Month to date snowfall 0.0 0.0  
Since 1 July snowfall 0.0 0.0  
Since 1 September snowfall 0.0 0.0  
Snow Depth 0.00 in    
Sea Level Pressure  
Sea Level Pressure 29.84 in    
Wind  
Wind Speed 7 mph (ENE)    
Max Wind Speed 17 mph    
Max Gust Speed 23 mph    
Visibility 8 miles    
Events Rain    
T = Trace of Precipitation, MM = Missing Value Source: NWS Daily Summary

Daily Weather History Graph

Daily Weather History Graph

Search for Another Location

Airport or City:

Astronomy

Oct. 19, 2019 Rise Set
Actual Time 6:54 AM CDT 6:08 PM CDT
Civil Twilight 6:29 AM CDT 6:33 PM CDT
Nautical Twilight 6:00 AM CDT 7:02 PM CDT
Astronomical Twilight 5:31 AM CDT 7:31 PM CDT
Moon 10:29 PM CDT (10/19) 12:14 PM CDT (10/19)
Length of Visible Light 12h 04m
Length of Day
11h 14m
Waning Gibbous, 69% of the Moon is Illuminated
Oct 19
Waning Gibbous
Oct 21
Last Quarter
Oct 27
New
Nov 4
First Quarter
Nov 12
Full

Hourly Weather History & Observations

Time (CDT) Temp. Dew Point Humidity Pressure Visibility Wind Dir Wind Speed Gust Speed Precip Events Conditions
12:53 AM 60.1 °F 45.0 °F 57% 29.88 in 10.0 mi East 8.1 mph - N/A   Overcast
1:53 AM 61.0 °F 45.0 °F 56% 29.87 in 10.0 mi East 8.1 mph - N/A   Scattered Clouds
2:53 AM 61.0 °F 46.0 °F 58% 29.86 in 10.0 mi East 11.5 mph 17.3 mph N/A   Mostly Cloudy
3:53 AM 61.0 °F 46.9 °F 60% 29.85 in 10.0 mi East 5.8 mph - N/A   Mostly Cloudy
4:53 AM 61.0 °F 48.9 °F 64% 29.86 in 10.0 mi ENE 6.9 mph - N/A   Mostly Cloudy
5:53 AM 60.1 °F 50.0 °F 69% 29.86 in 10.0 mi NE 5.8 mph - N/A   Overcast
6:53 AM 61.0 °F 52.0 °F 72% 29.86 in 10.0 mi Variable 6.9 mph 17.3 mph N/A   Overcast
7:27 AM 59.0 °F 54.0 °F 83% 29.88 in 2.5 mi ENE 6.9 mph - 0.00 in Rain Light Rain
7:44 AM 57.9 °F 55.0 °F 90% 29.87 in 5.0 mi ENE 6.9 mph - 0.02 in Rain Light Rain
7:53 AM 57.9 °F 55.0 °F 90% 29.86 in 3.0 mi ENE 6.9 mph - 0.03 in Rain Light Rain
8:01 AM 57.9 °F 55.0 °F 90% 29.87 in 2.5 mi ENE 6.9 mph - 0.01 in Rain Light Rain
8:21 AM 59.0 °F 55.9 °F 90% 29.87 in 7.0 mi Variable 6.9 mph - 0.02 in Rain Light Rain
8:53 AM 59.0 °F 55.9 °F 90% 29.87 in 10.0 mi East 12.7 mph 20.7 mph 0.02 in   Overcast
9:09 AM 60.1 °F 57.0 °F 90% 29.88 in 10.0 mi East 9.2 mph 17.3 mph N/A   Overcast
9:43 AM 60.1 °F 57.0 °F 90% 29.88 in 7.0 mi ENE 11.5 mph 20.7 mph N/A   Overcast
9:53 AM 60.1 °F 57.0 °F 90% 29.87 in 4.0 mi ENE 8.1 mph 19.6 mph 0.00 in Rain Light Rain
10:53 AM 59.0 °F 55.9 °F 90% 29.87 in 4.0 mi ENE 6.9 mph - 0.02 in Rain Light Rain
11:53 AM 59.0 °F 55.0 °F 87% 29.85 in 10.0 mi NE 13.8 mph 20.7 mph 0.00 in   Overcast
12:53 PM 59.0 °F 55.0 °F 87% 29.83 in 10.0 mi ENE 12.7 mph 19.6 mph N/A   Overcast
1:48 PM 57.2 °F 55.4 °F 94% 29.82 in 10.0 mi NE 9.2 mph - 0.00 in   Overcast
1:53 PM 59.0 °F 55.0 °F 87% 29.81 in 10.0 mi NE 12.7 mph - 0.00 in   Overcast
2:34 PM 59.0 °F 55.0 °F 87% 29.81 in 2.0 mi NE 5.8 mph - 0.01 in Rain Light Rain
2:53 PM 57.9 °F 55.0 °F 90% 29.79 in 2.0 mi NE 8.1 mph - 0.02 in Rain Light Rain
3:05 PM 57.9 °F 55.0 °F 90% 29.80 in 2.0 mi NE 9.2 mph - 0.00 in   Overcast
3:08 PM 57.9 °F 55.0 °F 90% 29.80 in 4.0 mi NE 6.9 mph - 0.00 in   Overcast
3:53 PM 59.0 °F 55.9 °F 90% 29.78 in 10.0 mi NE 6.9 mph - 0.00 in   Light Drizzle
4:53 PM 59.0 °F 55.0 °F 87% 29.78 in 10.0 mi NE 9.2 mph - 0.00 in   Overcast
5:53 PM 59.0 °F 55.0 °F 87% 29.80 in 10.0 mi Variable 5.8 mph - N/A   Overcast
6:53 PM 57.9 °F 55.0 °F 90% 29.81 in 10.0 mi NE 5.8 mph - N/A   Overcast
7:53 PM 57.9 °F 54.0 °F 87% 29.81 in 10.0 mi ENE 3.5 mph - N/A   Overcast
8:26 PM 57.9 °F 54.0 °F 87% 29.82 in 10.0 mi NE 5.8 mph - N/A   Overcast
8:53 PM 57.9 °F 54.0 °F 87% 29.81 in 10.0 mi NE 4.6 mph - N/A   Overcast
9:53 PM 59.0 °F 54.0 °F 83% 29.82 in 10.0 mi NE 4.6 mph - N/A   Overcast
10:53 PM 59.0 °F 54.0 °F 83% 29.83 in 10.0 mi North 3.5 mph - N/A   Overcast
11:53 PM 59.0 °F 54.0 °F 83% 29.82 in 10.0 mi Calm Calm - N/A   Overcast